User: anonymous   Login
Location: Unspecified
(0.0000°N, 0.0000°E)
Time: 17:13:23
(UTC+00:00)
Language:

Astrid 2 - Orbit

View from above orbital plane
View from above orbital plane
View from above satellite
View from above satellite

Ground track
Ground track

The orbit data is extracted from the following two-line orbital elements,

1 25568U 98072B   18291.91535243 +.00000068 +00000-0 +57547-4 0  9991
2 25568 082.9512 346.9059 0023623 304.1343 107.4616 13.72544180994232
Epoch (UTC): 18 October 2018 21:58:06
Eccentricity: 0.0023623
inclination: 82.9512°
perigee height: 973 km
apogee height: 1008 km
right ascension of ascending node: 346.9059°
argument of perigee: 304.1343°
revolutions per day: 13.72544180
mean anomaly at epoch: 107.4616°
orbit number at epoch: 99423

The dashed part of the orbit path shows where the satellite is in the earth's shadow,  

DLR